Location: Ferchesar
(52.6477°N, 12.4298°E)
Time: 03:34:30
(UTC+01:00)

BUGSAT 1 - Pass Details

Date: 26 October 2021
Orbit: 558 x 600 km, 98.1° (Epoch: 03 December)

Event Time Altitude Azimuth Distance (km) Brightness Sun altitude
Rises 05:40:31 0° 21° (NNE) 2,760 ? -21.1°
Reaches altitude 10° 05:42:48 10° 30° (NNE) 1,861 ? -20.7°
Maximum altitude 05:46:31 35° 97° (E) 919 ? -20.2°
Drops below altitude 10° 05:50:13 10° 165° (SSE) 1,859 ? -19.6°
Sets 05:52:30 0° 174° (S) 2,757 ? -19.3°
